CZ-6A DEB, 61323

Orbit data source: Space-Track

CZ-6A DEB, 61323 is space debris in LEO originally from a launch on Tue, 06 Aug 2024 UTC launched from the Taiyaun Space Center, China (TSC). Debris objects in space refer to the collection of defunct objects orbiting the Earth. Examples of debris include non-operational satellites, rocket bodies, and fragments generated from explosions, collisions, or faulty payload assembly.

Loading next visibility...
Identifier
61323, 2024-140UL
Orbit
LEO
Country
Flag of CNCN / PRC
Related business
Manufacturer
SAST
Mission
Spacecraft
Bus & Motor
Unknown
Mass
Unknown
Launch date (UTC)
2024-08-06 (2 years ago)
Launch vehicle
Unknown
Launch site
Taiyaun Space Center, China (TSC)
Object type
Payload
Rocket body
Debris
Shape & HBR
Unknown shape, 0.1 m
Radar Cross Section
Small (<0.1 m²)

Expand to show TLE details & history
Last TLE update: 2 days ago

TLE from 2 days ago
0 CZ-6A DEB
1 61323U 24140UL  26170.20352293  .00004229  00000-0  82459-3 0  9996
2 61323  88.8449 256.6826 0073321 245.3516 114.0049 14.61132958 95165
Epoch: 2026-06-19T04:53Z
TLE epoch observation values (Epoch: 2026-06-19T04:53:04.381Z)
Latitude
0.00003°
Longitude
-84.02152°
Altitude
714.031 km
Speed
7.487 km/s
True Right ascension
17h 06m 43s
True Declination
0° 00' 00"
Sunlit
Object was in full shadow at epoch
Visualization orbit readout
Latitude
Unknown
Longitude
Unknown
Altitude
Unknown
Speed
Unknown
Apparent Right ascension
Unknown
Apparent Declination
Unknown
Sunlit
N/A
Visualization observer readout
Local Sidereal Time
10:18:08
Azimuth
Unknown
Elevation
Unknown
Doppler factor
Unknown
Orbital elements
Apogee altitude
738.209 km
Perigee altitude
634.613 km
Semi-major axis
7,064.548 km
Eccentricity
0.00733
Inclination
88.8449°
RAAN
256.6826°
Arg. of periapsis
245.3516°
True anomaly
114.76955°
Mean anomaly
114.0049°
Eccentric anomaly
114.38751°
Mean motion
3.65525 °/min
Orbital period
98.49 mins
BSTAR
0.00082459
Loading maneuver chart data...
Computing Atmospheric mass density...
Loading historical data...
Loading historical data...
Loading historical data...
Loading historical data...
Loading historical data...
Loading historical data...
Loading historical data...

Documentation

Showing up to 5 results
|